Location: Kalberh�ni
(46.4610°N, 7.2453°E)
Time: 02:45:12
(UTC+00:00)

Cosmos 1408 - Pass Details

Date: 20 June 2021
Orbit: 466 x 492 km, 82.6° (Epoch: 25 July)

Event Time Altitude Azimuth Distance (km) Brightness Sun altitude
Exits shadow 23:52:44 55° 129° (SE) 593 2.7 -20.0°
Maximum altitude 23:53:09 60° 96° (E) 567 2.8 -19.9°
Drops below altitude 10° 23:56:48 10° 16° (NNE) 1,695 6.5 -19.9°
Sets 23:58:56 0° 13° (NNE) 2,584 7.9 -19.8°
